Pinedale, WY

6:30 PM MST on February 09, 2016 (GMT -0700)
Wenz

Weather History for KPNA - July, 2013

Change the Weather History Date:

Saturday, July 27, 2013

  Actual Average (KBPI) Record (KBPI)
Temperature  
Mean Temperature 60 °F 63 °F  
Max Temperature 75 °F 82 °F 89 °F (2008)
Min Temperature 44 °F 44 °F 33 °F (2001)
Degree Days  
Heating Degree Days 6 3  
Month to date heating degree days 103  
Since 1 June heating degree days 408  
Since 1 July heating degree days 103  
Cooling Degree Days 0 1  
Month to date cooling degree days 19  
Year to date cooling degree days 21  
Since 1 June cooling degree days 21  
Growing Degree Days 10 (Base 50)    
Moisture  
Dew Point 39 °F    
Average Humidity 50    
Maximum Humidity 77    
Minimum Humidity 22    
Precipitation  
Precipitation 0.00 in 0.03 in 0.25 in (2004)
Month to date precipitation 0.60  
Year to date precipitation 3.86  
Sea Level Pressure  
Sea Level Pressure 30.24 in    
Wind  
Wind Speed 6 mph (WNW)    
Max Wind Speed 16 mph    
Max Gust Speed 20 mph    
Visibility 10 miles    
Events Rain    
T = Trace of Precipitation, MM = Missing Value Source: NWS Daily Summary

Daily Weather History Graph

Daily Weather History Graph

Search for Another Location

Airport or City:

Trip Planner

Search our weather history database for the weather conditions in past years. The results will help you decide how hot, cold, wet, or windy it might be!

Date:

Astronomy

Jul. 27, 2013 Rise Set
Actual Time 6:05 AM MDT 8:45 PM MDT
Civil Twilight 5:33 AM MDT 9:17 PM MDT
Nautical Twilight 4:52 AM MDT 9:58 PM MDT
Astronomical Twilight 4:05 AM MDT 10:44 PM MDT
Moon 11:23 PM MDT (7/27) 11:59 AM MDT (7/27)
Length of Visible Light 15h 44m
Length of Day
14h 39m
Waning Gibbous, 70% of the Moon is Illuminated
Jul 27
Waning Gibbous
Jul 29
Last Quarter
Aug 6
New
Aug 14
First Quarter
Aug 20
Full

Hourly Weather History & Observations

Time (MDT) Temp. Windchill Dew Point Humidity Pressure Visibility Wind Dir Wind Speed Gust Speed Precip Events Conditions
12:15 AM 53.6 °F - 37.4 °F 54% 30.30 in 10.0 mi WNW 5.8 mph - N/A   Clear
12:35 AM 51.8 °F - 37.4 °F 58% 30.30 in 10.0 mi WNW 3.5 mph - N/A   Clear
12:55 AM 51.8 °F - 37.4 °F 58% 30.30 in 10.0 mi NW 3.5 mph - N/A   Clear
1:15 AM 51.8 °F - 37.4 °F 58% 30.30 in 10.0 mi West 5.8 mph - N/A   Clear
1:35 AM 50.0 °F - 35.6 °F 58% 30.29 in 10.0 mi West 8.1 mph - N/A   Clear
1:55 AM 50.0 °F - 35.6 °F 58% 30.30 in 10.0 mi WNW 5.8 mph - N/A   Clear
2:15 AM 46.4 °F 43.5 °F 35.6 °F 66% 30.29 in 10.0 mi West 5.8 mph - N/A   Clear
2:35 AM 46.4 °F 43.5 °F 35.6 °F 66% 30.29 in 10.0 mi West 5.8 mph - N/A   Clear
2:55 AM 46.4 °F 43.5 °F 35.6 °F 66% 30.29 in 10.0 mi West 5.8 mph - N/A   Clear
3:15 AM 46.4 °F 43.5 °F 35.6 °F 66% 30.29 in 10.0 mi West 5.8 mph - N/A   Clear
3:35 AM 44.6 °F 41.4 °F 33.8 °F 66% 30.29 in 10.0 mi WNW 5.8 mph - N/A   Clear
3:55 AM 46.4 °F 44.3 °F 35.6 °F 66% 30.28 in 10.0 mi WNW 4.6 mph - N/A   Clear
4:15 AM 44.6 °F 40.7 °F 35.6 °F 71% 30.28 in 10.0 mi WNW 6.9 mph - N/A   Clear
4:35 AM 46.4 °F 44.3 °F 37.4 °F 71% 30.29 in 10.0 mi NW 4.6 mph - N/A   Clear
4:55 AM 44.6 °F 41.4 °F 35.6 °F 71% 30.28 in 10.0 mi West 5.8 mph - N/A   Clear
5:15 AM 44.6 °F 41.4 °F 35.6 °F 71% 30.28 in 10.0 mi West 5.8 mph - N/A   Clear
5:35 AM 44.6 °F 38.4 °F 33.8 °F 66% 30.29 in 10.0 mi WNW 12.7 mph - N/A   Clear
5:55 AM 46.4 °F 42.9 °F 35.6 °F 66% 30.29 in 10.0 mi West 6.9 mph - N/A   Clear
6:15 AM 48.2 °F - 33.8 °F 58% 30.28 in 10.0 mi WSW 3.5 mph - N/A   Clear
6:35 AM 50.0 °F - 33.8 °F 54% 30.27 in 10.0 mi Calm Calm - N/A   Clear
6:55 AM 50.0 °F - 37.4 °F 62% 30.27 in 10.0 mi WNW 6.9 mph - N/A   Clear
7:15 AM 50.0 °F - 37.4 °F 62% 30.27 in 10.0 mi Calm Calm - N/A   Clear
7:35 AM 55.4 °F - 37.4 °F 51% 30.27 in 10.0 mi WNW 5.8 mph - N/A   Clear
7:55 AM 59.0 °F - 39.2 °F 48% 30.27 in 10.0 mi Calm Calm - N/A   Clear
8:15 AM 60.8 °F - 41.0 °F 48% 30.27 in 10.0 mi Calm Calm - N/A   Clear
8:35 AM 62.6 °F - 37.4 °F 39% 30.27 in 10.0 mi Calm Calm - N/A   Clear
8:55 AM 68.0 °F - 37.4 °F 33% 30.27 in 10.0 mi NW 6.9 mph - N/A   Scattered Clouds
9:15 AM 69.8 °F - 37.4 °F 31% 30.27 in 10.0 mi NW 8.1 mph - N/A   Scattered Clouds
9:35 AM 69.8 °F - 37.4 °F 31% 30.26 in 10.0 mi NNW 6.9 mph - N/A   Clear
9:55 AM 69.8 °F - 39.2 °F 33% 30.26 in 10.0 mi North 5.8 mph - N/A   Clear
10:15 AM 71.6 °F - 37.4 °F 29% 30.26 in 10.0 mi North 3.5 mph - N/A   Clear
10:35 AM 71.6 °F - 37.4 °F 29% 30.25 in 10.0 mi North 5.8 mph - N/A   Scattered Clouds
10:55 AM 71.6 °F - 33.8 °F 25% 30.25 in 10.0 mi NNW 6.9 mph - N/A   Scattered Clouds
11:15 AM 73.4 °F - 33.8 °F 23% 30.24 in 10.0 mi NNW 5.8 mph - N/A   Clear
11:35 AM 75.2 °F - 33.8 °F 22% 30.24 in 10.0 mi NW 10.4 mph 17.3 mph N/A   Scattered Clouds
11:55 AM 73.4 °F - 33.8 °F 23% 30.23 in 10.0 mi NW 16.1 mph - N/A   Scattered Clouds
12:15 PM 71.6 °F - 35.6 °F 27% 30.24 in 10.0 mi NW 16.1 mph - N/A   Mostly Cloudy
12:35 PM 71.6 °F - 35.6 °F 27% 30.24 in 10.0 mi WNW 16.1 mph - N/A   Overcast
12:55 PM 71.6 °F - 35.6 °F 27% 30.25 in 10.0 mi WSW 13.8 mph 17.3 mph N/A   Overcast
1:15 PM 71.6 °F - 35.6 °F 27% 30.24 in 10.0 mi WSW 12.7 mph 18.4 mph N/A   Overcast
1:35 PM 71.6 °F - 35.6 °F 27% 30.25 in 10.0 mi WSW 10.4 mph 18.4 mph N/A   Mostly Cloudy
1:55 PM 69.8 °F - 35.6 °F 28% 30.24 in 10.0 mi WSW 5.8 mph - N/A   Overcast
2:15 PM 69.8 °F - 37.4 °F 31% 30.24 in 10.0 mi West 5.8 mph - N/A Rain Light Rain
2:35 PM 69.8 °F - 39.2 °F 33% 30.23 in 10.0 mi NW 11.5 mph 19.6 mph N/A   Overcast
2:55 PM 68.0 °F - 41.0 °F 37% 30.24 in 10.0 mi NW 15.0 mph 18.4 mph N/A Rain Light Rain
3:15 PM 68.0 °F - 39.2 °F 35% 30.24 in 10.0 mi NW 13.8 mph - N/A   Overcast
3:35 PM 66.2 °F - 41.0 °F 40% 30.24 in 10.0 mi South 4.6 mph - N/A   Overcast
3:55 PM 64.4 °F - 46.4 °F 52% 30.24 in 10.0 mi NW 5.8 mph - N/A Rain Light Rain
4:15 PM 68.0 °F - 41.0 °F 37% 30.23 in 10.0 mi Calm Calm - N/A   Mostly Cloudy
4:35 PM 68.0 °F - 41.0 °F 37% 30.22 in 10.0 mi SE 3.5 mph - N/A   Mostly Cloudy
4:55 PM 68.0 °F - 42.8 °F 40% 30.21 in 10.0 mi ESE 6.9 mph - N/A   Mostly Cloudy
5:15 PM 68.0 °F - 42.8 °F 40% 30.21 in 10.0 mi ESE 9.2 mph - N/A   Mostly Cloudy
5:35 PM 66.2 °F - 42.8 °F 43% 30.21 in 10.0 mi East 11.5 mph - N/A   Overcast
5:55 PM 66.2 °F - 44.6 °F 46% 30.19 in 10.0 mi East 9.2 mph - N/A   Overcast
6:15 PM 64.4 °F - 44.6 °F 49% 30.19 in 10.0 mi East 9.2 mph - N/A   Overcast
6:35 PM 64.4 °F - 46.4 °F 52% 30.20 in 10.0 mi East 6.9 mph - N/A   Overcast
6:55 PM 64.4 °F - 46.4 °F 52% 30.19 in 10.0 mi East 6.9 mph - N/A   Overcast
7:15 PM 62.6 °F - 44.6 °F 52% 30.19 in 10.0 mi ESE 8.1 mph - N/A   Overcast
7:35 PM 62.6 °F - 44.6 °F 52% 30.18 in 10.0 mi ESE 8.1 mph - N/A   Mostly Cloudy
7:55 PM 62.6 °F - 46.4 °F 55% 30.18 in 10.0 mi ESE 6.9 mph - N/A   Scattered Clouds
8:15 PM 62.6 °F - 46.4 °F 55% 30.18 in 10.0 mi ESE 5.8 mph - N/A   Scattered Clouds
8:35 PM 60.8 °F - 46.4 °F 59% 30.18 in 10.0 mi ESE 4.6 mph - N/A   Overcast
8:55 PM 60.8 °F - 46.4 °F 59% 30.18 in 10.0 mi ESE 3.5 mph - N/A   Overcast
9:15 PM 59.0 °F - 46.4 °F 63% 30.18 in 10.0 mi ESE 4.6 mph - N/A   Overcast
9:35 PM 57.2 °F - 46.4 °F 67% 30.18 in 10.0 mi ESE 5.8 mph - N/A   Overcast
9:55 PM 55.4 °F - 46.4 °F 72% 30.19 in 10.0 mi SE 5.8 mph - N/A   Mostly Cloudy
10:15 PM 55.4 °F - 44.6 °F 67% 30.19 in 10.0 mi East 4.6 mph - N/A   Scattered Clouds
10:35 PM 53.6 °F - 44.6 °F 72% 30.19 in 10.0 mi ESE 5.8 mph - N/A   Scattered Clouds
10:55 PM 53.6 °F - 46.4 °F 77% 30.18 in 10.0 mi Calm Calm - N/A   Scattered Clouds
11:15 PM 51.8 °F - 44.6 °F 76% 30.18 in 10.0 mi East 3.5 mph - N/A   Clear
11:35 PM 51.8 °F - 44.6 °F 76% 30.18 in 10.0 mi Calm Calm - N/A   Mostly Cloudy
11:55 PM 51.8 °F - 44.6 °F 76% 30.18 in 10.0 mi Calm Calm - N/A   Scattered Clouds